Location: ??????
(41.3794°N, 22.5014°E)
Time: 22:31:29
(UTC+00:00)

Cosmos 2366 rocket - Pass Details

Date: 30 November 2020
Orbit: 955 x 997 km, 82.9° (Epoch: 19 January)

Event Time Altitude Azimuth Distance (km) Brightness Sun altitude
Rises 16:05:34 0° 353° (N) 3,663 6.9 -11.8°
Reaches altitude 10° 16:08:06 10° 355° (N) 2,707 6.2 -12.3°
Maximum altitude 16:14:17 77° 82° (E) 987 3.9 -13.4°
Drops below altitude 10° 16:20:24 10° 168° (SSE) 2,675 6.4 -14.5°
Sets 16:22:53 0° 170° (S) 3,616 7.1 -14.9°
